Regional Weather Roundup
Issued by NWS

Home | Current Version | Previous Version | Graphics & Text | Print | Product List | Glossary Off
Versions: 1 2 3 4 5 6 7 8 9 10 11 12 13 14 15 16 17 18 19 20 21 22 23 24 25 26 27 28 29 30 31 32 33 34 35 36 37 38 39 40 41 42 43 44 45 46 47 48 49 50

000
ASUS43 KDMX 271703
RWRIA

WEATHER ROUNDUP FOR IOWA
NATIONAL WEATHER SERVICE DES MOINES IA
1200 PM CDT WED JUL 27 2016

NOTE: "FAIR" INDICATES FEW OR NO CLOUDS BELOW 12,000 FEET WITH NO
SIGNIFICANT WEATHER AND/OR OBSTRUCTIONS TO VISIBILITY.

* - THESE STATIONS ARE NOT NWS STATIONS...THUS NOT UNDER NWS
QUALITY CONTROL.  THEY ALSO DO NOT REPORT WEATHER SUCH
AS PRECIPITATION OR FOG.

IAZ001>003-012>014-020>022-031>034-043>046-271800-
   NORTHWEST IOWA

CITY           SKY/WX    TMP DP  RH WIND       PRES   REMARKS
CARROLL *      LGT RAIN  72  70  94 VRB5      30.03S
CHEROKEE *     CLOUDY    80  73  78 SW9       30.00S HX  85
DENISON *      HVY RAIN  68  68 100 CALM      30.01S VSB 3/4
LE MARS *      SUNNY     84  68  58 W3        30.01S HX  87
SHELDON *      CLOUDY    81  72  74 SW10G17   30.00R HX  84
SIOUX CITY     SUNNY     82  68  62 CALM      30.00S HX  85
SPENCER        MOSUNNY   80  68  66 SW9       29.99F HX  83
STORM LAKE *   CLOUDY    77  70  78 SW10      30.03R
$$

IAZ055>058-069>071-079>083-090>094-271800-
   SOUTHWEST IOWA

CITY           SKY/WX    TMP DP  RH WIND       PRES   REMARKS
ATLANTIC *     PTSUNNY   81  70  69 S12       30.00F HX  84
CLARINDA *       N/A     81  72  74 MISG      30.04F HX  84
COUNCIL BLFS * SUNNY     82  72  69 S10G18    29.99S HX  87
CRESTON *      CLOUDY    81  68  65 SW9       30.04F HX  83
HARLAN  *      CLOUDY    77  72  83 S10       30.03S
LAMONI         CLOUDY    81  69  67 CALM      30.03R HX  84
RED OAK *      MOSUNNY   82  73  74 SW9G15    30.01F HX  88
SHENANDOAH *   PTSUNNY   81  75  83 S8        30.01F HX  86
$$

IAZ047>049-059>061-072>074-084-271800-
   CENTRAL IOWA

CITY           SKY/WX    TMP DP  RH WIND       PRES   REMARKS
AMES           CLOUDY    79  70  74 S7        30.02S HX  82
ANKENY *         N/A    N/A N/A N/A MISG        N/A
BOONE *        CLOUDY    77  70  78 S6        30.02R
CHARITON *       N/A    N/A N/A N/A MISG        N/A
DES MOINES     CLOUDY    80  69  69 S6        30.01R HX  83
GRINNELL*      PTSUNNY   80  65  60 S7        30.03S HX  82
KNOXVILLE *    CLOUDY    81  68  65 CALM      30.00F HX  83
MARSHALLTOWN   CLOUDY    80  66  62 S9        30.00F HX  82
NEWTON *       MOSUNNY   81  70  69 SE7       30.00F HX  84
PELLA *        MOSUNNY   82  67  60 CALM      30.02F HX  84
PERRY *          N/A     78  72  84 SE3       30.03R
$$

IAZ004>006-015-016-023>025-035-036-271800-
   NORTH CENTRAL IOWA

CITY           SKY/WX    TMP DP  RH WIND       PRES   REMARKS
ALGONA *       CLOUDY    75  68  78 SW9       30.03R
ESTHERVILLE    CLOUDY    75  69  81 S14       29.99S
FORT DODGE *   CLOUDY    75  68  78 S9        30.04R
MASON CITY     CLOUDY    77  70  79 S8        30.02F
FOREST CITY *    N/A     75  66  73 S13       30.00F
IOWA FALLS *     N/A     77  68  74 SE3       30.02F
$$

IAZ007>011-017>019-026>030-037>042-050>054-066-271800-
   NORTHEAST IOWA

CITY           SKY/WX    TMP DP  RH WIND       PRES   REMARKS
CEDAR RAPIDS   CLOUDY    82  70  66 SE6       30.01S HX  86
CHARLES CITY * CLOUDY    79  70  73 S7G13     30.02F HX  81
CLINTON *      MOSUNNY   82  68  62 CALM      30.03F HX  85
DECORAH *      CLOUDY    79  68  69 CALM      30.01S HX  81
DUBUQUE        MOSUNNY   80  66  62 S5        30.03F HX  82
MONTICELLO *   MOSUNNY   82  68  61 VRB6      30.01F HX  85
OELWEIN *      CLOUDY    79  68  69 CALM      30.03R HX  81
WATERLOO       CLOUDY    81  65  58 SE8       30.00S HX  83
$$

IAZ064-065-067-068-078-271800-
   EAST CENTRAL IOWA

CITY           SKY/WX    TMP DP  RH WIND       PRES   REMARKS
DAVENPORT      PTSUNNY   82  68  62 CALM      30.03S HX  85
IOWA CITY      MOSUNNY   82  68  62 S5        30.02S HX  85
MT. PLEASANT * PTSUNNY   87  72  62 SE7       30.00F HX  93
MUSCATINE *    MOSUNNY   82  68  61 VRB5      30.01S HX  85
QUAD CITIES    PTSUNNY   85  66  53 SE3       30.01S HX  87
$$

IAZ062-063-075>077-085>089-095>099-271800-
   SOUTHEAST IOWA

CITY           SKY/WX    TMP DP  RH WIND       PRES   REMARKS
BURLINGTON     SUNNY     84  71  65 SE7       30.00F HX  89
FAIRFIELD *    MOSUNNY   82  68  61 VRB5      30.01S HX  85
KEOKUK *       SUNNY     84  72  65 VRB5      30.00S HX  89
CENTERVILLE *    N/A     82  66  57 CALM      30.03S HX  85
OTTUMWA        MOSUNNY   83  63  50 VRB6      30.01S HX  84
WASHINGTON *   PTSUNNY   82  72  69 S6        30.02S HX  87
$$

ABBREVIATIONS USED IN REMARKS
   TC - TEMPERATURES IN CELSIUS
  WCI - WIND CHILL INDEX
   HX - HEAT INDEX
  VSB - VISIBILITY
$$




USA.gov is the U.S. government's official web portal to all federal, state and local government web resources and services.